www.pogodaiklimat.ru

Погода и климат >> Архив погоды >> Южная Африка >> Остров Гоф


ПОГОДА на Острове Гоф

  • Прогноз погоды на Острове Гоф
  • Монитор погоды на Острове Гоф

АРХИВ ПОГОДЫ на Острове Гоф

Время (UTC), дата Ветер
(напр.,м/с)
 
Видим.   Явления Облачность Т
(С)
Тd
(С)
f
(%)
Тe
(С)
Тes
(С)
Комфортность P
(гПа)
Po
(гПа)
Тmin
(С)
Tmax
(С)
R
(мм)
R24
(мм)
S
(см)
21 18.08 СЗ 8 20 км слаб. морось 10/10 600 м
[St]
+13.5 +8.3 71 +11 +11 1014.5 1008.0 +13.3 +15.2
00 19.08 З 8 20 км 4/4 600 м
[Cu Sc]
+13.6 +8.6 72 +11 +11 1013.2 1006.8 +13.3 +15.2 0.2
03 19.08 З 9 20 км 5/5 600 м
[Cu Sc]
+13.6 +8.9 73 +11 +11 1012.8 1006.4 +13.3 +15.2
06 19.08 СЗ 7 20 км 5/5 600 м
[Cu Sc]
+13.7 +9.1 74 +11 +11 1012.3 1005.9 +13.3
09 19.08 СЗ 8 20 км 8/4 600 м
[Cu Sc Ac As Ci fib]
+14.0 +9.4 74 +12 +12 1013.0 1006.6 +13.3 +14.1
12 19.08 СЗ 8 20 км 6/4 600 м
[Sc Ac As Ci fib]
+14.7 1080.4 +13.3 +14.8
15 19.08 СЗ 9 20 км 9/4 600 м
[Sc Ac As]
+14.7 +9.5 71 +12 +13 1013.6 1007.2 +14.6 +15.3
21 19.08 СЗ 8 20 км слаб. морось 8/8 300 м
[St]
+13.4 +9.8 79 +11 +11 1014.9 1008.4 +13.2 +15.3
00 20.08 СЗ 9 20 км слаб. морось 8/4 600 м
[St Ac As]
+13.3 +9.3 77 +10 +10 1013.3 1006.8 +13.2 +15.3
03 20.08 СЗ 10 20 км 8/8 600 м
[Cu Sc]
+14.0 +8.8 71 +11 +11 1010.9 1004.5 +13.2 +15.3
06 20.08 СЗ 10 20 км 9/9 600 м
[Sc]
+13.4 +8.7 73 +10 +10 1080.3 1001.6 +13.4
09 20.08 СЗ 8 20 км 10/9 600 м
[Sc Ac As]
+13.4 +9.4 77 +11 +11 1006.7 1000.3 +13.2 +13.6
12 20.08 СЗ 9 10 км слаб. морось {дождь} 10/8 600 м
[St As trans]
+12.5 +10.0 85 +9 +9 1080.6 997.1 +12.3 +13.6 4
15 20.08 СЗ 7 20 км 8/8 600 м
[Cu Sc]
+12.0 +8.8 81 +9 +9 1001.4 995.0 +11.6 +13.6
18 20.08 СЗ 6 20 км 8/8 600 м
[Sc]
+12.2 +6.5 68 +10 +10 1001.3 994.9 +11.6 +13.6 11
21 20.08 ЮЗ 12 20 км 10/10 600 м
[Sc]
+7.8 +4.2 78 +2 +2 1005.5 999.0 +7.8 +13.6
00 21.08 ЮЗ 7 20 км 9/9 600 м
[Cu Sc]
+7.4 +3.2 75 +3 +3 1010.2 1003.6 +7.2 +13.6 12
03 21.08 З 5 20 км в посл. час ливневой дождь 9/9 600 м
[Cu Sc]
+7.0 +2.7 74 +3 +3 1011.5 1004.9 +6.3 +13.6
06 21.08 З 5 20 км 5/5 600 м
[Sc]
+7.6 +1.8 67 +4 +4 1011.6 1005.0 +6.2 12
09 21.08 З 5 20 км 3/1 600 м
[Sc Ac As]
+9.3 +3.3 66 +6 +7 1012.0 1005.5 +6.3 +9.3
12 21.08 З 7 20 км 6/6 600 м
[Cu Sc]
+11.3 +4.5 63 +8 +9 1060.4 1005.2 +6.3 +11.5 0.2
15 21.08 З 4 20 км 8/8 600 м
[Cu Sc]
+11.3 +5.0 65 +9 +10 1011.2 1004.7 +11.1 +12.3
18 21.08 З 5 20 км в посл. час ливневой дождь 8/5 600 м
[Cu Sc Ac As]
+9.2 +6.3 82 +6 +6 1011.9 1005.4 +8.5 +12.3
00 22.08 З 3 20 км 9/9 600 м
[Cu Sc]
+8.0 +4.2 77 +5 +5 1013.9 1007.3 +7.9 +12.3 4
03 22.08 З 3 20 км 8/8 600 м
[Cu Sc Ac As]
+8.4 +3.4 71 +6 +6 1013.7 1007.1 +7.9 +12.3
06 22.08 З 6 20 км 6/0 1500 м
[As trans]
+9.5 +2.8 63 +6 +6 1070.4 1006.0 +7.9 4
09 22.08 З 4 20 км 5/1 600 м
[Cu Sc Ac As Ci fib]
+10.5 +3.3 61 +8 +10 1012.5 1006.0 +7.9 +10.5
12 22.08 З 7 20 км 3/3 600 м
[Cu Sc]
+12.1 +4.1 58 +9 +11 1060.4 1005.6 +7.9 +12.8 0.2
15 22.08 З 5 20 км 4/3 600 м
[Cu Sc Ac cast]
+12.3 +4.8 60 +10 +12 1010.6 1004.1 +11.6 +13.1
21 22.08 З 8 20 км в посл. час ливневой дождь 8/8 600 м
[Cu Sc]
+10.9 +4.8 66 +7 +7 1009.3 1002.8 +10.6 +13.1
00 23.08 З 5 20 км 9/9 600 м
[Cu Sc]
+11.4 +5.3 66 +9 +9 1008.4 1001.9 +10.6 +13.1 0.4
03 23.08 СЗ 9 20 км в посл. час ливневой дождь 6/6 600 м
[Cu Sc]
+10.5 +4.6 67 +7 +7 1007.9 1001.4 +9.2 +13.1
06 23.08 З 5 20 км 6/6 600 м
[Sc]
+10.1 +4.5 68 +7 +7 1070.4 1000.7 +9.2 3
09 23.08 З 4 10 км слаб. ливневой дождь 9/6 600 м
[Cu med, cong Ac As]
+9.5 +5.8 78 +7 +7 1007.7 1001.2 +8.8 +10.1
12 23.08 ЮЗ 5 20 км 9/9 600 м
[Cu Sc]
+8.9 +6.3 84 +5 +6 1060.4 1002.6 +8.1 +10.1 3
15 23.08 ЮЗ 7 20 км 9/9 600 м
[Cu Sc]
+7.8 +3.4 74 +3 +3 1010.2 1003.6 +7.7 +10.1
18 23.08 ЮЗ 7 20 км 5/5 600 м
[Sc]
+6.8 +0.2 63 +2 +2 1011.9 1005.3 +6.6 +10.1 4
21 23.08 ЮЗ 7 20 км 6/6 600 м
[Cu Sc]
+6.0 +1.1 71 +1 +1 1014.7 1008.1 +6.0 +10.1
00 24.08 ЮЗ 6 20 км в посл. час ливневой дождь 9/9 600 м
[Cu Sc]
+4.3 +1.8 84 -1 -1 1016.8 1010.1 +4.0 +10.1 6
03 24.08 ЮЗ 6 20 км слаб. ливневой дождь 10/10 600 м
[Cu Sc]
+5.1 -1.1 64 +1 +1 1018.4 1011.7 +4.0 +10.1
06 24.08 Ю 5 20 км 9/9 600 м
[Cu Sc]
+5.0 -1.4 63 +1 +1 1070.4 1013.5 +4.0 6
09 24.08 ЮЗ 4 20 км 9/9 600 м
[Cu Sc]
+5.0 -2.3 59 +1 +1 1022.9 1016.2 +4.1 +5.0
12 24.08 ЮЗ 4 20 км 4/4 600 м
[Cu Sc]
+7.1 -0.5 58 +4 +8 1060.4 1018.0 +4.1 +7.1
15 24.08 ЮЗ 4 20 км 9/6 600 м
[Cu Sc Ac As Ci fib]
+6.3 -0.8 60 +3 +4 1025.3 1018.6 +6.0 +7.4
18 24.08 ЮЗ 4 20 км в посл. час ливневой дождь 8/5 600 м
[Cu Sc Ci sp]
+4.0 -1.7 66 -0 -0 1026.0 1019.2 +3.9 +7.4 0.6
00 25.08 ЮЗ 7 20 км 8/8 600 м
[Cu Sc]
+4.5 +1.5 81 -1 -1 1027.1 1020.4 +3.2 +7.4 3
03 25.08 ЮЗ 7 20 км 6/6 50 м
[Cu Sc]
+5.3 -0.1 68 0 0 1026.6 1019.9 +3.2 +7.4
06 25.08 ЮЗ 8 20 км в посл. час ливневой дождь 6/6 600 м
[Cu Sc]
+5.2 +0.9 74 -1 -1 1026.4 1019.7 +3.2 4
09 25.08 ЮЗ 8 20 км слаб. ливневой дождь 8/8 600 м
[Cu Sc]
+6.6 +1.7 71 +2 +2 1027.5 1020.8 +3.2 +6.9
12 25.08 З 7 20 км слаб. ливневой дождь 8/8 600 м
[Cu Sc]
+7.1 +2.4 72 +3 +3 1070.4 1021.1 +3.2 +8.8 0.2
15 25.08 ЮЗ 9 20 км в посл. час ливневой дождь 8/8 600 м
[Cu Sc]
+7.3 +2.0 69 +2 +2 1027.0 1020.3 +6.1 +8.8

 

Местоположение метеостанции Остров Гоф (Южная Африка): широта -40.35 долгота -9.88 высота над уровнем моря 54 м.

В архиве по умолчанию представлена погода на Острове Гоф за последнюю неделю. Архивные данные за месяц целиком и за предыдущие месяцы, начиная с января 2011 года, Вы можете получить, выбрав интересующий диапазон дат из раскрывающегося списка и нажав кнопку "Ввод!".


*Определитесь, кто Вы:
робот инопланетянин человек

Внимание! Время в таблицах - всемирное. Для получения местного времени необходимо прибавить поправку, которая равна 2 ч.

Смотрите также архив погоды в соседних городах и на ближайших метеорологических станциях:

Погода в Триндади (Эспириту-Санту, Бразилия) (2876 км)

Пояснения к столбцам:

Ветер - указаны скорость ветра в м/с - средняя за 10 мин, порывы в срок и между сроками (в фигурных скобках) и направление, откуда дует ветер: С - северный, СВ - северо-восточный, В - восточный, ЮВ - юго-восточный, Ю - южный, ЮЗ - юго-западный, З - западный, СЗ - северо-западный.
Видимость - горизонтальная дальность видимости в метрах или километрах. При видимости от 1 до 10 км при отсутствии осадков обычно наблюдается дымка, при ухудшении видимости до 1 км и менее - туман. В сухую погоду видимость может ухудшаться дымом, пылью или мглою.
Явления - указаны атмосферные явления, наблюдавшиеся в срок или в последний час перед сроком; фигурными скобками обозначены явления, наблюдавшиеся между сроками (за 1-3 часа до срока); квадратными скобками обозначены град или гололедные отложения с указанием их диаметра в мм.
Облачность - указаны через наклонную черту общая и нижняя облачность в баллах и высота нижней границы облаков в метрах; квадратными скобками обозначены формы облаков: Ci - перистые, Cs - перисто-слоистые, Cc - перисто-кучевые, Ac - высококучевые, As - высокослоистые, Sc - слоисто-кучевые, Ns - слоисто-дождевые, Cu - кучевые, Cb - кучево-дождевые. Подробнее классификацию облаков см. в Атласе облаков (PDF).
T - Температура воздуха - температура, измеренная на высоте 2 м над землей.
Td - Температура точки росы - температура, при понижении до которой содержащийся в воздухе водяной пар достигнет насыщения.
f - Относительная влажность воздуха - влажноcть воздуха, измеренная на высоте 2 м над землей.
Te - Эффективная температура - температура, которую ощущает одетый по сезону человек в тени. Характеристика душности погоды. При расчете учитывается влияние влажности воздуха и скорости ветра на теплоощущения человека.
Tes - Эффективная температура на солнце - температура, которую ощущает человек, с поправкой на солнечный нагрев. Характеристика знойности погоды. Зависит от высоты солнца над горизонтом, облачности и скорости ветра. Ночью, в пасмурную погоду, а также при ветре 12 м/с и более поправка равна нулю.
P - Атмосферное давление - приведенное к уровню моря атмосферное давление.
Po - Атмосферное давление - измеренное на уровне метеостанции атмосферное давление.
Tmin - Минимальная температура - минимум температуры воздуха на высоте 2 м над землей.
Tmax - Максимальная температура - максимум температуры воздуха на высоте 2 м над землей.
R - Количество осадков - Количество выпавших осадков за период времени, мм. При наведении курсора мыши на число - период времени, за который выпало указанное количество осадков.
R24 - Количество осадков - Количество выпавших осадков за 24 часа, мм.
S - Снежный покров - Высота снежного покрова, см. При наведении курсора мыши на число - состояние снежного покрова и степень покрытия местности в баллах.